User: anonymous   Login
Location: Caltech
(34.1382°N, 118.1253°W)
Time: 03:27:49
(UTC-07:00)
Language:

Meteor 1-11 Rocket - Orbit

View from above orbital plane
View from above orbital plane
View from above satellite
View from above satellite

Ground track
Ground track

The orbit data is extracted from the following two-line orbital elements,

1 05918U 72022B   16125.18650251  .00000263  00000-0  15102-3 0  9992
2 05918  81.2386   1.5259 0059061  36.5823 323.9356 14.05800940260531
Epoch (UTC): 04 May 2016 04:28:33
Eccentricity: 0.0059061
inclination: 81.2386°
perigee height: 831 km
apogee height: 916 km
right ascension of ascending node: 1.5259°
argument of perigee: 36.5823°
revolutions per day: 14.05800940
mean anomaly at epoch: 323.9356°
orbit number at epoch: 26053

The dashed part of the orbit path shows where the satellite is in the earth's shadow,  

DLR